This demonstration page uses our WeatherBlox Daily Observations layout. Learn more.

Hourly Observations for February 2, 2018

Temp ( °F °C ) Dew Point ( °F °C ) Humidity (%) Winds ( mph kmh ) Pressure ( in mb ) Visibility ( mi km ) Precip ( " mm )
12:15 am 00:15 Cloudy 21 -6.2 14 -10 75 75 S 6 9 30.59 1036 10 16.0934 0 0
12:35 am 00:35 Cloudy 21 -6 13 -10.5 71 71 S 7 11 30.59 1036 10 16.0934 0 0
12:55 am 00:55 Cloudy 22 -5.8 13 -10.5 70 70 S 5 7 30.59 1036 10 16.0934 0 0
1:15 am 01:15 Cloudy 22 -5.6 13 -10.7 68 68 S 8 13 30.56 1035 10 16.0934 0 0
1:35 am 01:35 Cloudy 22 -5.5 12 -11.1 65 65 S 10 17 30.56 1035 10 16.0934 0 0
1:55 am 01:55 Cloudy 22 -5.5 12 -11.1 65 65 S 8 13 30.53 1034 10 16.0934 0 0
2:15 am 02:15 Cloudy 22 -5.6 12 -11.1 66 66 S 10 17 30.53 1034 10 16.0934 0 0
2:35 am 02:35 Cloudy 22 -5.7 12 -11.2 66 66 S 9 15 30.53 1034 10 16.0934 0 0
2:55 am 02:55 Cloudy 21 -6.1 12 -11.2 68 68 S 9 15 30.56 1035 10 16.0934 0 0
3:15 am 03:15 Cloudy 21 -6.2 12 -11.2 68 68 S 9 15 30.56 1035 10 16.0934 0 0
3:35 am 03:35 Cloudy 20 -6.5 12 -11.3 69 69 SSW 10 17 30.56 1035 10 16.0934 0 0
3:55 am 03:55 Mostly Cloudy 20 -6.7 12 -11.1 71 71 S 9 15 30.56 1035 10 16.0934 0 0
4:15 am 04:15 Partly Cloudy 19 -7.1 12 -11 74 74 S 7 11 30.53 1034 10 16.0934 0 0
4:35 am 04:35 Clear 18 -7.8 12 -11.1 77 77 S 6 9 30.53 1034 10 16.0934 0 0
4:55 am 04:55 Partly Cloudy 17 -8.2 12 -11.1 80 80 SSE 6 9 30.53 1034 10 16.0934 0 0
5:15 am 05:15 Mostly Cloudy 17 -8.2 12 -11 80 80 SSE 3 6 30.53 1034 10 16.0934 0 0
5:35 am 05:35 Cloudy 17 -8.6 12 -11 83 83 SSE 6 9 30.53 1034 10 16.0934 0 0
5:55 am 05:55 Mostly Cloudy 16 -9 12 -11.1 85 85 SSE 8 13 30.53 1034 10 16.0934 0 0
6:15 am 06:15 Clear 16 -9 12 -11 86 86 S 5 7 30.53 1034 10 16.0934 0 0
6:35 am 06:35 Clear 16 -8.7 12 -11 84 84 S 6 9 30.53 1034 10 16.0934 0 0
6:55 am 06:55 Clear 16 -9.1 12 -11.1 86 86 S 8 13 30.53 1034 10 16.0934 0 0
7:15 am 07:15 Clear 15 -9.2 12 -11.2 86 86 S 9 15 30.53 1034 10 16.0934 0 0
7:35 am 07:35 Clear 15 -9.3 11 -11.4 85 85 S 9 15 30.56 1035 10 16.0934 0 0
7:55 am 07:55 Sunny 15 -9.5 11 -11.5 86 86 S 8 13 30.53 1034 10 16.0934 0 0
8:15 am 08:15 Sunny 16 -8.7 12 -11 84 84 S 12 19 30.5 1033 10 16.0934 0 0
8:35 am 08:35 Sunny 17 -8.1 13 -10.7 82 82 S 12 19 30.5 1033 10 16.0934 0 0
8:55 am 08:55 Sunny 19 -7.4 13 -10.3 80 80 S 15 24 30.48 1032 10 16.0934 0 0
9:15 am 09:15 Sunny 21 -6 15 -9.7 75 75 S 15 24 30.45 1031 10 16.0934 0 0
9:35 am 09:35 Sunny 23 -4.8 15 -9.4 71 71 S 16 26 30.45 1031 10 16.0934 0 0
9:55 am 09:55 Sunny 25 -4 15 -9.4 66 66 S 16 26 30.45 1031 10 16.0934 0 0
10:15 am 10:15 Sunny 26 -3.2 16 -9 65 65 S 18 30 30.42 1030 10 16.0934 0 0
10:35 am 10:35 Sunny 28 -2.5 17 -8.5 64 64 S 17 28 30.39 1029 10 16.0934 0 0
10:55 am 10:55 Sunny 31 -0.7 18 -7.7 59 59 SSW 21 33 30.36 1028 10 16.0934 0 0
11:15 am 11:15 Sunny 31 -0.3 18 -7.8 57 57 S 21 33 30.36 1028 10 16.0934 0 0
11:35 am 11:35 Sunny 33 0.7 19 -7.4 55 55 SSW 18 30 30.33 1027 10 16.0934 0 0
11:55 am 11:55 Sunny 35 1.5 19 -7 54 54 SSW 18 30 30.33 1027 10 16.0934 0 0
12:15 pm 12:15 Sunny 36 2.2 20 -6.9 51 51 S 23 37 30.27 1025 10 16.0934 0 0
12:35 pm 12:35 Sunny 38 3.1 20 -6.5 50 50 SSW 22 35 30.27 1025 10 16.0934 0 0
12:55 pm 12:55 Sunny 40 4.4 22 -5.8 48 48 SSW 22 35 30.21 1023 10 16.0934 0 0
1:15 pm 13:15 Sunny 42 5.4 22 -5.5 46 46 SSW 20 31 30.18 1022 10 16.0934 0 0
1:35 pm 13:35 Sunny 43 5.9 23 -5.2 45 45 SSW 24 39 30.18 1022 10 16.0934 0 0
1:55 pm 13:55 Sunny 44 6.9 24 -4.6 44 44 SSW 18 30 30.18 1022 10 16.0934 0 0
2:15 pm 14:15 Sunny 46 7.8 24 -4.3 42 42 SW 21 33 30.15 1021 10 16.0934 0 0
2:35 pm 14:35 Sunny 47 8.3 25 -4 42 42 SW 20 31 30.15 1021 10 16.0934 0 0
2:55 pm 14:55 Sunny 47 8.6 25 -3.9 41 41 SW 23 37 30.12 1020 10 16.0934 0 0
3:15 pm 15:15 Sunny 47 8.6 25 -3.7 42 42 SSW 21 33 30.12 1020 10 16.0934 0 0
3:35 pm 15:35 Sunny 47 8.5 26 -3.5 43 43 SSW 16 26 30.12 1020 10 16.0934 0 0
3:55 pm 15:55 Sunny 46 8 26 -3.4 45 45 SW 17 28 30.12 1020 10 16.0934 0 0
4:15 pm 16:15 Sunny 47 8.1 27 -3 46 46 SW 12 19 30.12 1020 10 16.0934 0 0
4:35 pm 16:35 Sunny 47 8.2 27 -2.7 46 46 SW 10 17 30.09 1019 10 16.0934 0 0
4:55 pm 16:55 Sunny 46 7.9 27 -2.6 48 48 WSW 9 15 30.09 1019 10 16.0934 0 0
5:15 pm 17:15 Partly Cloudy 45 7.1 27 -2.7 50 50 WSW 6 9 30.09 1019 10 16.0934 0 0
5:35 pm 17:35 Sunny 43 6.3 28 -2.5 54 54 WSW 5 7 30.12 1020 10 16.0934 0 0
5:55 pm 17:55 Sunny 42 5.6 27 -2.6 56 56 Calm 30.12 1020 10 16.0934 0 0
6:15 pm 18:15 Clear 40 4.7 27 -2.6 60 60 Calm 30.12 1020 10 16.0934 0 0
6:35 pm 18:35 Clear 38 3.4 26 -3.3 62 62 Calm 30.12 1020 10 16.0934 0 0
6:55 pm 18:55 Partly Cloudy 39 3.7 27 -2.8 63 63 SSE 5 7 30.12 1020 10 16.0934 0 0
7:15 pm 19:15 Partly Cloudy 39 3.8 27 -3 62 62 S 5 7 30.12 1020 10 16.0934 0 0
7:35 pm 19:35 Mostly Cloudy 39 3.9 26 -3.1 61 61 SSE 3 6 30.12 1020 10 16.0934 0 0
7:55 pm 19:55 Mostly Cloudy 36 2.2 25 -3.7 65 65 SSE 5 7 30.15 1021 10 16.0934 0 0
8:15 pm 20:15 Mostly Cloudy 37 3 23 -4.8 57 57 S 8 13 30.09 1019 10 16.0934 0 0
8:35 pm 20:35 Partly Cloudy 35 1.5 23 -5 62 62 S 7 11 30.12 1020 10 16.0934 0 0
8:55 pm 20:55 Clear 33 0.7 22 -5.6 63 63 S 7 11 30.12 1020 10 16.0934 0 0
9:15 pm 21:15 Partly Cloudy 33 0.6 21 -6 62 62 SSE 8 13 30.12 1020 10 16.0934 0 0
9:35 pm 21:35 Cloudy 33 0.4 21 -6.1 62 62 S 9 15 30.12 1020 10 16.0934 0 0
9:55 pm 21:55 Cloudy 34 1 21 -6 60 60 S 10 17 30.09 1019 10 16.0934 0 0
10:15 pm 22:15 Cloudy 35 1.5 21 -6.2 57 57 S 12 19 30.09 1019 10 16.0934 0 0
10:35 pm 22:35 Cloudy 35 1.5 21 -6.2 57 57 S 9 15 30.09 1019 10 16.0934 0 0
10:55 pm 22:55 Cloudy 34 1.3 21 -6.2 58 58 S 10 17 30.09 1019 10 16.0934 0 0
11:15 pm 23:15 Mostly Cloudy 34 1.1 21 -6.2 59 59 S 9 15 30.06 1018 10 16.0934 0 0
11:35 pm 23:35 Partly Cloudy 33 0.4 21 -6.1 62 62 S 9 15 30.06 1018 10 16.0934 0 0
11:55 pm 23:55 Partly Cloudy 32 0.1 21 -6.1 63 63 S 10 17 30.06 1018 10 16.0934 0 0

Powered by AerisWeather